Preview of NWS' New Version of Forecast
This preview is not operational and should not be used for support decisions.

Regional Weather Roundup (RWR)

Issued by National Weather Service (NWS)

                            
000
ASUS45 KCYS 220310
RWRWY 

WYOMING REGIONAL WEATHER ROUNDUP
NATIONAL WEATHER SERVICE CHEYENNE WY
800 PM MST THU FEB 21 2019

NOTE:  "FAIR" INDICATES FEW OR NO CLOUDS BELOW 12,000 FEET
WITH NO SIGNIFICANT WEATHER AND/OR OBSTRUCTIONS TO VISIBILITY.

WYZ001-220400-
YELLOWSTONE NATIONAL PARK
  
CITY           SKY/WX    TMP DP  RH WIND       PRES   REMARKS
LK YELLOWSTONE   N/A     -6 -11  79 NW3       29.75R                  
W YELLOWSTONE  NOT AVBL                                               

$$
WYZ002>013-054>058-071-098>099-220400-
NORTHERN WYOMING
  
CITY           SKY/WX    TMP DP  RH WIND       PRES   REMARKS
JACKSON        FAIR       9  -1  64 N13       29.77R WCI  -7          
CODY           FAIR       5   2  87 NE3       29.96R                  
GREYBULL       FAIR      12   6  77 CALM      30.01R                  
WORLAND        FAIR       9   7  92 NE5       29.98S WCI   1          
SHERIDAN       MOCLDY    10   6  84 W7        30.04S WCI  -1          
BUFFALO        CLOUDY    11   7  84 SW5       29.97F WCI   3          
GILLETTE       LGT SNOW  14  10  84 NE7       30.02S FOG     WCI   4  
HULETT         MOCLDY    10   9  92 MISG      30.06R                  
NEWCASTLE      LGT SNOW  16  12  86 CALM      30.04  VSB 1            

$$
WYZ014>020-022>026-101>103-220400-
CENTRAL WYOMING
  
CITY           SKY/WX    TMP DP  RH WIND       PRES   REMARKS
BIG PINEY      CLOUDY     6  -1  73 NE6       29.73R WCI  -4          
PINEDALE       FAIR      -2  -8  78 NW7       29.73  WCI -16          
DUBOIS         LGT SNOW   7   3  85 SE7       29.79  WCI  -5          
LANDER         CLOUDY    12   8  84 W6        29.89R WCI   3          
RIVERTON       CLOUDY    12   6  77 CALM      29.90R                  
CASPER         LGT SNOW  15  12  88 NE15      29.90S FOG     WCI   0  
DOUGLAS        LGT SNOW  16  13  88 E10       29.95R FOG     WCI   4  

$$
WYZ021-027>030-104>119-220400-
SOUTHERN WYOMING
  
CITY           SKY/WX    TMP DP  RH WIND       PRES   REMARKS
EVANSTON       LGT SNOW  11   6  81 NE17G24   29.65S WCI  -6          
KEMMERER       LGT SNOW  10   5  79 NE18      29.70  WCI  -8          
ROCK SPRINGS   LGT SNOW   9   6  88 NE28      29.72R FOG     WCI -13  
DIXON          CLOUDY    20  12  72 E14       29.68S WCI   7          
RAWLINS        CLOUDY    15  11  83 NE22G29   29.72S WCI  -3          
SARATOGA       CLOUDY    19  14  79 S7        29.70R WCI  10          
LARAMIE        MOCLDY    13   7  77 SE8       29.75R WCI   2          
CHEYENNE       LGT SNOW  16  15  96 E8        29.85R FOG     WCI   5  
TORRINGTON     LGT SNOW  19  16  88 E12       29.99R FOG     WCI   7  
PINE BLUFFS    CLOUDY    19  18  93 E13       29.92R WCI   7          

$$